Station History


Daily Summary for January 31, 2012 Units:  English    Metric   Both
« Previous Day
Next Day »
Daily Weekly Monthly Yearly Custom
  High: Low: Average:
Temperature: 66.2 °F 45.4 °F 54.3 °F
Dew Point: 52.3 °F 44.3 °F 48.9 °F
Humidity: 97% 56% 83%
Wind Speed: 5.8mph 0.0mph 1.8mph
Wind Gust: 5.8mph - -
Wind- - SW
Pressure: 30.19 in 30.00 in -
Precipitation: 0.00 in    
Historical Graphs
 
 
Tabular Data for January 31, 2012
Time Temperature Dew Point Pressure Wind Wind Speed Wind Gust Humidity Rainfall Rate (Hourly)
00:01 52.2 °F 49.1 °F 30.03 in Calm     89% 0.00 in
00:06 52.2 °F 49.1 °F 30.03 in Calm     89% 0.00 in
00:11 52.2 °F 49.1 °F 30.03 in Calm     89% 0.00 in
00:16 52.1 °F 49.0 °F 30.03 in Calm     89% 0.00 in
00:21 52.1 °F 49.0 °F 30.03 in Calm     89% 0.00 in
00:26 52.2 °F 49.1 °F 30.03 in Calm     89% 0.00 in
00:32 52.3 °F 48.9 °F 30.03 in East 3.0 mph 3.0 mph 88% 0.00 in
00:37 52.5 °F 49.0 °F 30.03 in East 1.1 mph 1.1 mph 88% 0.00 in
00:42 52.6 °F 49.1 °F 30.03 in East 1.1 mph 1.1 mph 88% 0.00 in
00:47 52.8 °F 49.0 °F 30.03 in Calm     87% 0.00 in
00:52 52.8 °F 49.0 °F 30.03 in Calm     87% 0.00 in
00:57 52.6 °F 48.8 °F 30.03 in Calm     87% 0.00 in
01:02 52.5 °F 48.7 °F 30.03 in Calm     87% 0.00 in
01:07 52.3 °F 48.9 °F 30.02 in Calm     88% 0.00 in
01:12 52.2 °F 49.1 °F 30.02 in East 1.1 mph 1.1 mph 89% 0.00 in
01:17 52.2 °F 49.1 °F 30.02 in East 1.1 mph 1.1 mph 89% 0.00 in
01:22 52.4 °F 48.9 °F 30.02 in Calm   0.1 mph 88% 0.00 in
01:27 52.5 °F 48.7 °F 30.01 in ENE 1.1 mph   87% 0.00 in
01:32 52.5 °F 48.7 °F 30.01 in Calm     87% 0.00 in
01:37 52.4 °F 48.6 °F 30.01 in Calm     87% 0.00 in
01:42 52.3 °F 48.5 °F 30.01 in Calm     87% 0.00 in
01:47 52.2 °F 48.4 °F 30.01 in Calm     87% 0.00 in
01:48 52.2 °F 48.4 °F 30.01 in Calm     87% 0.00 in
01:53 52.2 °F 48.4 °F 30.01 in Calm     87% 0.00 in
01:58 52.0 °F 48.3 °F 30.01 in Calm     87% 0.00 in
02:03 51.8 °F 48.4 °F 30.01 in Calm     88% 0.00 in
02:08 51.7 °F 48.3 °F 30.01 in Calm     88% 0.00 in
02:13 51.5 °F 48.1 °F 30.01 in Calm     88% 0.00 in
02:18 51.2 °F 47.8 °F 30.01 in Calm     88% 0.00 in
02:23 51.0 °F 47.9 °F 30.00 in Calm     89% 0.00 in
02:28 50.9 °F 48.1 °F 30.01 in Calm     90% 0.00 in
02:33 50.8 °F 48.0 °F 30.01 in Calm     90% 0.00 in
02:38 50.7 °F 48.2 °F 30.00 in Calm     91% 0.00 in
02:43 50.7 °F 48.2 °F 30.00 in Calm     91% 0.00 in
02:48 50.6 °F 48.1 °F 30.00 in Calm     91% 0.00 in
02:53 50.6 °F 48.1 °F 30.00 in Calm     91% 0.00 in
02:58 50.5 °F 48.0 °F 30.00 in Calm     91% 0.00 in
03:03 50.4 °F 48.2 °F 30.00 in Calm     92% 0.00 in
03:08 50.6 °F 48.4 °F 30.00 in Calm     92% 0.00 in
03:13 50.6 °F 48.4 °F 30.00 in Calm     92% 0.00 in
03:18 50.5 °F 48.0 °F 30.00 in Calm     91% 0.00 in
03:23 50.4 °F 47.9 °F 30.00 in North 1.1 mph 1.1 mph 91% 0.00 in
03:28 50.1 °F 47.6 °F 30.01 in Calm     91% 0.00 in
03:33 49.9 °F 47.4 °F 30.01 in Calm     91% 0.00 in
03:38 49.8 °F 47.6 °F 30.01 in NNW 1.1 mph   92% 0.00 in
03:43 49.6 °F 47.4 °F 30.01 in NNW 1.1 mph 1.1 mph 92% 0.00 in
03:48 49.6 °F 47.4 °F 30.01 in Calm     92% 0.00 in
03:53 49.5 °F 47.3 °F 30.02 in Calm     92% 0.00 in
03:58 49.5 °F 47.3 °F 30.02 in Calm     92% 0.00 in
04:03 49.4 °F 47.2 °F 30.02 in Calm     92% 0.00 in
04:08 49.4 °F 47.5 °F 30.03 in Calm     93% 0.00 in
04:13 49.3 °F 47.4 °F 30.03 in Calm     93% 0.00 in
04:18 49.3 °F 47.4 °F 30.03 in Calm     93% 0.00 in
04:23 49.3 °F 47.4 °F 30.03 in Calm     93% 0.00 in
04:28 49.2 °F 47.3 °F 30.04 in Calm     93% 0.00 in
04:33 49.2 °F 47.3 °F 30.04 in Calm     93% 0.00 in
04:38 49.1 °F 47.2 °F 30.04 in Calm     93% 0.00 in
04:43 49.1 °F 47.2 °F 30.05 in Calm     93% 0.00 in
04:48 49.1 °F 47.2 °F 30.05 in Calm     93% 0.00 in
04:53 49.1 °F 47.4 °F 30.05 in Calm     94% 0.00 in
04:58 49.1 °F 47.4 °F 30.05 in Calm     94% 0.00 in
05:03 49.0 °F 47.1 °F 30.06 in Calm     93% 0.00 in
05:08 48.9 °F 47.0 °F 30.06 in Calm     93% 0.00 in
05:13 48.8 °F 46.9 °F 30.06 in Calm     93% 0.00 in
05:18 48.6 °F 46.7 °F 30.06 in Calm     93% 0.00 in
05:23 48.6 °F 47.0 °F 30.06 in Calm     94% 0.00 in
05:28 48.5 °F 46.6 °F 30.06 in Calm     93% 0.00 in
05:33 48.2 °F 46.6 °F 30.06 in Calm     94% 0.00 in
05:38 48.0 °F 46.1 °F 30.06 in Calm     93% 0.00 in
05:43 47.7 °F 46.1 °F 30.06 in Calm     94% 0.00 in
05:48 47.5 °F 45.9 °F 30.06 in Calm     94% 0.00 in
05:53 47.1 °F 45.2 °F 30.06 in Calm     93% 0.00 in
05:58 47.0 °F 45.4 °F 30.06 in North 1.1 mph   94% 0.00 in
06:03 46.9 °F 45.3 °F 30.07 in Calm     94% 0.00 in
06:08 46.8 °F 45.2 °F 30.07 in Calm     94% 0.00 in
06:13 46.5 °F 44.9 °F 30.07 in Calm     94% 0.00 in
06:18 46.4 °F 45.0 °F 30.08 in Calm     95% 0.00 in
06:23 46.2 °F 44.8 °F 30.09 in Calm     95% 0.00 in
06:28 46.4 °F 45.3 °F 30.09 in Calm     96% 0.00 in
06:33 46.4 °F 45.3 °F 30.09 in Calm     96% 0.00 in
06:38 46.3 °F 44.9 °F 30.09 in Calm     95% 0.00 in
06:43 46.0 °F 44.6 °F 30.09 in Calm     95% 0.00 in
06:48 45.7 °F 44.4 °F 30.09 in Calm     95% 0.00 in
06:53 45.6 °F 44.3 °F 30.09 in Calm     95% 0.00 in
06:58 45.5 °F 44.4 °F 30.09 in Calm     96% 0.00 in
07:03 45.5 °F 44.4 °F 30.10 in Calm     96% 0.00 in
07:08 45.6 °F 44.5 °F 30.10 in Calm     96% 0.00 in
07:13 45.6 °F 44.5 °F 30.10 in Calm     96% 0.00 in
07:18 45.5 °F 44.4 °F 30.11 in Calm     96% 0.00 in
07:23 45.5 °F 44.4 °F 30.11 in Calm     96% 0.00 in
07:28 45.4 °F 44.3 °F 30.11 in Calm     96% 0.00 in
07:33 45.5 °F 44.4 °F 30.11 in Calm     96% 0.00 in
07:39 45.7 °F 44.6 °F 30.12 in Calm     96% 0.00 in
07:44 45.7 °F 44.6 °F 30.12 in Calm     96% 0.00 in
07:49 45.9 °F 45.1 °F 30.12 in Calm     97% 0.00 in
07:54 46.0 °F 45.2 °F 30.13 in Calm     97% 0.00 in
07:59 46.1 °F 45.3 °F 30.13 in SW 1.1 mph   97% 0.00 in
08:04 46.2 °F 45.4 °F 30.13 in Calm     97% 0.00 in
08:09 46.4 °F 45.6 °F 30.13 in Calm     97% 0.00 in
08:14 46.5 °F 45.7 °F 30.13 in Calm     97% 0.00 in
08:19 46.7 °F 45.9 °F 30.13 in Calm     97% 0.00 in
08:24 47.0 °F 46.2 °F 30.13 in Calm     97% 0.00 in
08:29 47.2 °F 46.4 °F 30.13 in Calm     97% 0.00 in
08:34 47.5 °F 46.7 °F 30.13 in Calm     97% 0.00 in
08:39 47.7 °F 46.9 °F 30.13 in Calm     97% 0.00 in
08:44 48.0 °F 47.2 °F 30.14 in Calm     97% 0.00 in
08:49 48.3 °F 47.5 °F 30.14 in Calm     97% 0.00 in
08:54 48.6 °F 47.8 °F 30.14 in Calm     97% 0.00 in
08:59 48.9 °F 48.1 °F 30.14 in Calm     97% 0.00 in
09:04 49.2 °F 48.4 °F 30.14 in Calm     97% 0.00 in
09:09 49.6 °F 48.8 °F 30.13 in Calm     97% 0.00 in
09:14 49.9 °F 49.1 °F 30.14 in Calm     97% 0.00 in
09:19 50.2 °F 49.4 °F 30.14 in Calm     97% 0.00 in
09:24 50.5 °F 49.7 °F 30.14 in Calm     97% 0.00 in
09:29 50.9 °F 49.5 °F 30.14 in WSW 1.0 mph   95% 0.00 in
09:34 51.4 °F 49.7 °F 30.14 in WSW 2.3 mph 2.3 mph 94% 0.00 in
09:39 51.8 °F 49.8 °F 30.14 in SE 2.3 mph 2.3 mph 93% 0.00 in
09:44 52.1 °F 49.6 °F 30.14 in SW 1.1 mph   91% 0.00 in
09:49 52.4 °F 49.8 °F 30.14 in Calm     91% 0.00 in
09:54 52.7 °F 49.8 °F 30.14 in SSW 2.3 mph 2.3 mph 90% 0.00 in
09:59 52.9 °F 49.7 °F 30.14 in SSW 1.1 mph 1.1 mph 89% 0.00 in
10:04 53.1 °F 49.9 °F 30.14 in SSW 2.3 mph 2.3 mph 89% 0.00 in
10:09 53.4 °F 50.2 °F 30.14 in WSW 1.1 mph   89% 0.00 in
10:14 53.8 °F 50.3 °F 30.15 in SW 1.1 mph 1.1 mph 88% 0.00 in
10:19 54.1 °F 50.3 °F 30.15 in SW 2.3 mph 2.3 mph 87% 0.00 in
10:24 54.3 °F 50.2 °F 30.15 in SSW 2.3 mph 2.3 mph 86% 0.00 in
10:29 54.7 °F 50.6 °F 30.15 in WSW 2.3 mph 2.3 mph 86% 0.00 in
10:34 55.0 °F 50.6 °F 30.15 in SW 1.1 mph 1.1 mph 85% 0.00 in
10:39 55.2 °F 50.8 °F 30.15 in Calm     85% 0.00 in
10:44 55.6 °F 50.8 °F 30.15 in SW 1.1 mph   84% 0.00 in
10:49 56.2 °F 50.8 °F 30.15 in SW 1.1 mph 1.3 mph 82% 0.00 in
10:54 56.6 °F 51.2 °F 30.15 in WSW 1.1 mph   82% 0.00 in
10:59 57.0 °F 51.2 °F 30.15 in Calm     81% 0.00 in
11:04 57.4 °F 51.6 °F 30.14 in Calm     81% 0.00 in
11:09 57.8 °F 51.3 °F 30.14 in Calm     79% 0.00 in
11:14 58.2 °F 51.7 °F 30.13 in Calm     79% 0.00 in
11:19 58.4 °F 51.6 °F 30.13 in SW 2.3 mph 2.3 mph 78% 0.00 in
11:24 58.7 °F 51.9 °F 30.13 in South 1.1 mph 1.1 mph 78% 0.00 in
11:29 59.0 °F 51.8 °F 30.12 in ENE 1.1 mph 1.1 mph 77% 0.00 in
11:34 59.5 °F 51.9 °F 30.12 in SSW 1.1 mph 1.1 mph 76% 0.00 in
11:39 60.1 °F 51.8 °F 30.12 in SE 1.1 mph 1.1 mph 74% 0.00 in
11:44 60.4 °F 52.1 °F 30.11 in Calm     74% 0.00 in
11:49 60.8 °F 52.1 °F 30.10 in ESE 1.1 mph 1.1 mph 73% 0.00 in
11:54 61.1 °F 52.0 °F 30.10 in Calm     72% 0.00 in
11:59 61.5 °F 52.0 °F 30.09 in ESE 1.1 mph   71% 0.00 in
12:01 63.8 °F 50.5 °F 30.06 in SSW 2.3 mph 2.3 mph 62% 0.00 in
12:02 63.8 °F 50.5 °F 30.06 in SW 2.3 mph 2.3 mph 62% 0.00 in
12:04 61.8 °F 52.3 °F 30.08 in West 1.1 mph   71% 0.00 in
12:09 62.3 °F 52.0 °F 30.08 in SSE 1.1 mph 1.1 mph 69% 0.00 in
12:14 62.5 °F 51.8 °F 30.08 in SSW 1.1 mph 1.1 mph 68% 0.00 in
12:19 62.9 °F 52.2 °F 30.07 in Calm   0.1 mph 68% 0.00 in
12:25 63.4 °F 51.8 °F 30.07 in SW 1.1 mph 1.1 mph 66% 0.00 in
12:30 63.7 °F 52.1 °F 30.06 in SW 2.3 mph 2.3 mph 66% 0.00 in
12:35 63.8 °F 51.8 °F 30.06 in SW 2.3 mph 2.3 mph 65% 0.00 in
12:36 63.8 °F 51.8 °F 30.06 in SW 2.3 mph 2.3 mph 65% 0.00 in
12:41 63.7 °F 50.9 °F 30.06 in SW 2.3 mph 2.3 mph 63% 0.00 in
12:46 63.8 °F 50.5 °F 30.06 in SSW 2.3 mph 2.3 mph 62% 0.00 in
12:51 64.3 °F 51.4 °F 30.05 in SSE 2.3 mph 2.3 mph 63% 0.00 in
12:56 64.8 °F 51.5 °F 30.05 in Calm   0.2 mph 62% 0.00 in
13:02 64.9 °F 50.7 °F 30.05 in SW 3.0 mph 3.0 mph 60% 0.00 in
13:07 64.7 °F 50.5 °F 30.06 in SSW 3.5 mph 3.5 mph 60% 0.00 in
13:12 65.1 °F 50.9 °F 30.05 in WNW 2.3 mph 2.3 mph 60% 0.00 in
13:17 65.3 °F 50.6 °F 30.05 in SSW 1.1 mph 1.1 mph 59% 0.00 in
13:22 65.4 °F 50.7 °F 30.04 in Calm     59% 0.00 in
13:27 65.4 °F 51.6 °F 30.04 in West 3.5 mph 3.5 mph 61% 0.00 in
13:32 65.0 °F 50.3 °F 30.04 in WNW 1.1 mph   59% 0.00 in
13:37 65.0 °F 50.3 °F 30.03 in West 1.1 mph 1.1 mph 59% 0.00 in
13:42 65.3 °F 50.6 °F 30.03 in SW 1.0 mph 1.0 mph 59% 0.00 in
13:47 65.4 °F 50.2 °F 30.03 in West 1.1 mph 1.1 mph 58% 0.00 in
13:52 65.6 °F 50.9 °F 30.03 in SW 1.1 mph 1.1 mph 59% 0.00 in
13:57 65.7 °F 51.0 °F 30.03 in WNW 1.1 mph   59% 0.00 in
14:02 65.9 °F 51.2 °F 30.02 in WNW 1.1 mph 1.1 mph 59% 0.00 in
14:07 66.0 °F 50.8 °F 30.02 in NNW 2.3 mph 2.3 mph 58% 0.00 in
14:12 66.1 °F 50.9 °F 30.02 in West 1.1 mph 1.1 mph 58% 0.00 in
14:17 66.2 °F 50.5 °F 30.02 in SW 1.1 mph 1.1 mph 57% 0.00 in
14:22 66.0 °F 50.3 °F 30.02 in SW 2.3 mph 2.3 mph 57% 0.00 in
14:27 65.6 °F 50.0 °F 30.02 in South 1.1 mph 1.1 mph 57% 0.00 in
14:32 65.7 °F 50.0 °F 30.02 in West 1.1 mph 1.1 mph 57% 0.00 in
14:37 65.9 °F 50.2 °F 30.03 in NW 2.3 mph 2.3 mph 57% 0.00 in
14:42 66.0 °F 49.8 °F 30.03 in WNW 2.0 mph 2.0 mph 56% 0.00 in
14:48 66.0 °F 49.8 °F 30.03 in West 2.3 mph 2.3 mph 56% 0.00 in
14:53 65.6 °F 50.0 °F 30.04 in SW 3.5 mph 3.5 mph 57% 0.00 in
14:58 65.2 °F 50.0 °F 30.04 in WNW 2.3 mph 2.3 mph 58% 0.00 in
15:03 64.7 °F 50.9 °F 30.05 in West 3.5 mph 3.5 mph 61% 0.00 in
15:08 64.2 °F 50.5 °F 30.05 in NNE 1.1 mph 1.1 mph 61% 0.00 in
15:13 64.1 °F 50.8 °F 30.06 in NNW 1.1 mph 1.1 mph 62% 0.00 in
15:18 64.4 °F 50.7 °F 30.06 in SW 2.0 mph 2.0 mph 61% 0.00 in
15:23 64.2 °F 50.5 °F 30.07 in NE 3.5 mph 3.5 mph 61% 0.00 in
15:28 63.9 °F 51.5 °F 30.08 in ENE 1.1 mph 1.1 mph 64% 0.00 in
15:33 63.5 °F 51.5 °F 30.08 in East 2.0 mph 2.0 mph 65% 0.00 in
15:38 63.3 °F 51.7 °F 30.09 in NNW 5.8 mph 5.8 mph 66% 0.00 in
15:43 62.8 °F 51.3 °F 30.10 in NNE 4.6 mph 4.6 mph 66% 0.00 in
15:48 62.6 °F 51.1 °F 30.10 in ESE 3.5 mph 3.5 mph 66% 0.00 in
15:53 62.4 °F 51.7 °F 30.10 in South 3.5 mph 3.5 mph 68% 0.00 in
15:58 62.1 °F 51.4 °F 30.11 in NW 4.0 mph 4.0 mph 68% 0.00 in
16:03 61.9 °F 50.8 °F 30.11 in North 3.5 mph 3.5 mph 67% 0.00 in
16:08 61.6 °F 50.5 °F 30.11 in NW 2.3 mph 2.3 mph 67% 0.00 in
16:13 61.4 °F 50.3 °F 30.11 in NNW 4.6 mph 4.6 mph 67% 0.00 in
16:18 61.2 °F 50.6 °F 30.11 in North 3.5 mph 3.5 mph 68% 0.00 in
16:23 60.9 °F 50.7 °F 30.11 in NNW 2.3 mph 2.3 mph 69% 0.00 in
16:28 60.6 °F 50.8 °F 30.11 in NNW 1.1 mph 1.1 mph 70% 0.00 in
16:33 60.3 °F 50.5 °F 30.11 in NNW 1.1 mph 1.1 mph 70% 0.00 in
16:38 60.0 °F 50.6 °F 30.11 in North 2.3 mph 2.3 mph 71% 0.00 in
16:43 59.8 °F 50.8 °F 30.11 in NNW 1.1 mph 1.1 mph 72% 0.00 in
16:48 59.6 °F 50.9 °F 30.11 in NW 1.1 mph 1.1 mph 73% 0.00 in
16:53 59.5 °F 50.8 °F 30.11 in NNE 1.1 mph 1.1 mph 73% 0.00 in
16:58 59.3 °F 51.0 °F 30.11 in NNW 1.1 mph 1.1 mph 74% 0.00 in
17:03 59.1 °F 50.8 °F 30.11 in West 1.1 mph   74% 0.00 in
17:08 58.8 °F 50.9 °F 30.12 in Calm     75% 0.00 in
17:13 58.5 °F 51.0 °F 30.12 in NW 1.1 mph 1.1 mph 76% 0.00 in
17:18 58.3 °F 50.8 °F 30.12 in NNW 1.1 mph 1.1 mph 76% 0.00 in
17:23 58.1 °F 50.9 °F 30.12 in NE 1.0 mph 1.0 mph 77% 0.00 in
17:28 57.9 °F 50.7 °F 30.12 in NW 2.3 mph 2.3 mph 77% 0.00 in
17:33 57.8 °F 50.6 °F 30.13 in Calm     77% 0.00 in
17:38 57.5 °F 50.7 °F 30.12 in Calm     78% 0.00 in
17:43 57.3 °F 50.5 °F 30.13 in NNW 1.1 mph   78% 0.00 in
17:48 57.1 °F 50.6 °F 30.13 in NNW 1.1 mph   79% 0.00 in
17:53 56.9 °F 50.5 °F 30.13 in Calm     79% 0.00 in
17:58 56.7 °F 50.3 °F 30.13 in Calm     79% 0.00 in
18:03 56.5 °F 50.1 °F 30.13 in Calm     79% 0.00 in
18:08 56.2 °F 50.1 °F 30.14 in Calm     80% 0.00 in
18:13 55.9 °F 50.2 °F 30.14 in Calm     81% 0.00 in
18:18 55.8 °F 50.1 °F 30.14 in Calm     81% 0.00 in
18:23 55.6 °F 49.9 °F 30.14 in Calm     81% 0.00 in
18:28 55.3 °F 49.9 °F 30.14 in Calm     82% 0.00 in
18:33 55.0 °F 49.9 °F 30.14 in Calm     83% 0.00 in
18:38 54.8 °F 49.7 °F 30.14 in Calm     83% 0.00 in
18:43 54.6 °F 49.5 °F 30.14 in Calm     83% 0.00 in
18:48 54.4 °F 49.7 °F 30.14 in Calm     84% 0.00 in
18:53 54.3 °F 49.6 °F 30.14 in Calm     84% 0.00 in
18:58 54.1 °F 49.4 °F 30.14 in Calm     84% 0.00 in
19:03 53.9 °F 49.5 °F 30.14 in Calm     85% 0.00 in
19:08 53.8 °F 49.4 °F 30.14 in Calm     85% 0.00 in
19:13 53.8 °F 49.4 °F 30.14 in Calm     85% 0.00 in
19:18 53.7 °F 49.0 °F 30.14 in Calm     84% 0.00 in
19:23 53.7 °F 49.0 °F 30.15 in Calm     84% 0.00 in
19:28 53.5 °F 48.8 °F 30.15 in Calm     84% 0.00 in
19:33 53.4 °F 49.0 °F 30.15 in Calm     85% 0.00 in
19:38 53.2 °F 48.8 °F 30.15 in Calm     85% 0.00 in
19:43 53.3 °F 49.2 °F 30.14 in Calm     86% 0.00 in
19:48 53.3 °F 49.2 °F 30.14 in Calm     86% 0.00 in
19:53 53.3 °F 49.2 °F 30.14 in Calm     86% 0.00 in
19:58 53.4 °F 49.3 °F 30.14 in Calm     86% 0.00 in
20:03 53.4 °F 49.3 °F 30.14 in Calm     86% 0.00 in
20:08 53.4 °F 49.3 °F 30.13 in Calm     86% 0.00 in
20:13 53.4 °F 49.3 °F 30.13 in Calm     86% 0.00 in
20:18 53.4 °F 49.3 °F 30.13 in Calm     86% 0.00 in
20:23 53.6 °F 49.5 °F 30.13 in NNW 1.1 mph   86% 0.00 in
20:28 53.8 °F 49.7 °F 30.13 in Calm     86% 0.00 in
20:33 54.0 °F 49.6 °F 30.14 in Calm     85% 0.00 in
20:39 54.1 °F 49.7 °F 30.14 in Calm     85% 0.00 in
20:44 54.1 °F 49.4 °F 30.14 in Calm     84% 0.00 in
20:49 54.1 °F 49.4 °F 30.14 in Calm     84% 0.00 in
20:54 53.9 °F 49.5 °F 30.14 in Calm     85% 0.00 in
20:59 53.7 °F 49.3 °F 30.14 in Calm     85% 0.00 in
21:01 53.7 °F 49.3 °F 30.14 in Calm     85% 0.00 in
21:06 53.3 °F 48.6 °F 30.14 in Calm     84% 0.00 in
21:12 53.1 °F 49.0 °F 30.14 in Calm     86% 0.00 in
21:17 52.9 °F 48.8 °F 30.14 in Calm   0.1 mph 86% 0.00 in
21:22 52.7 °F 48.6 °F 30.14 in Calm     86% 0.00 in
21:27 52.4 °F 48.3 °F 30.14 in Calm     86% 0.00 in
21:32 52.2 °F 48.4 °F 30.14 in Calm     87% 0.00 in
21:37 52.0 °F 48.3 °F 30.14 in Calm     87% 0.00 in
21:42 51.8 °F 48.4 °F 30.15 in Calm     88% 0.00 in
21:47 51.7 °F 48.3 °F 30.15 in Calm     88% 0.00 in
21:52 51.6 °F 48.5 °F 30.16 in Calm     89% 0.00 in
21:57 51.6 °F 48.5 °F 30.16 in Calm     89% 0.00 in
22:02 51.6 °F 48.5 °F 30.17 in Calm     89% 0.00 in
22:07 51.6 °F 48.5 °F 30.18 in Calm     89% 0.00 in
22:12 51.7 °F 48.6 °F 30.18 in NNW 1.0 mph 1.0 mph 89% 0.00 in
22:17 51.7 °F 48.6 °F 30.18 in Calm     89% 0.00 in
22:22 51.7 °F 48.6 °F 30.18 in Calm     89% 0.00 in
22:27 51.8 °F 48.7 °F 30.18 in Calm   0.2 mph 89% 0.00 in
22:32 51.8 °F 48.7 °F 30.18 in Calm     89% 0.00 in
22:38 51.8 °F 48.7 °F 30.18 in Calm     89% 0.00 in
22:50 51.8 °F 48.7 °F 30.18 in ENE 2.3 mph 2.3 mph 89% 0.00 in
22:55 51.9 °F 48.5 °F 30.18 in Calm   0.1 mph 88% 0.00 in
23:00 51.9 °F 48.5 °F 30.18 in Calm     88% 0.00 in
23:05 51.7 °F 48.3 °F 30.18 in Calm     88% 0.00 in
23:10 51.6 °F 48.2 °F 30.18 in Calm     88% 0.00 in
23:15 51.4 °F 48.3 °F 30.18 in Calm     89% 0.00 in
23:20 51.1 °F 48.0 °F 30.18 in Calm     89% 0.00 in
23:25 51.0 °F 47.9 °F 30.19 in Calm     89% 0.00 in
23:30 50.8 °F 48.0 °F 30.19 in Calm     90% 0.00 in
23:35 50.6 °F 47.8 °F 30.18 in Calm     90% 0.00 in
23:40 50.3 °F 47.5 °F 30.17 in Calm     90% 0.00 in
23:45 50.0 °F 47.2 °F 30.17 in Calm     90% 0.00 in
23:50 49.7 °F 47.2 °F 30.17 in Calm     91% 0.00 in
23:55 49.7 °F 47.2 °F 30.17 in Calm     91% 0.00 in
Compliments of Weather Underground